Temp
59 59 59 59 59 60 62 62 61 60 60 60 60 60 61 61 61 61 60 59 59 59 59 59 60 60 63 59 62 70 69 70 72 71 67 66 63 61 58 59 60 58 59 61 63 61 62
58 58 58 59 58 59 60 59 59 59 59 59 59 59 60 60 61 60 60 59 59 58 58 59 59 59 60 53 71 69 69 71 70 70 68 67 64 64 60 58 58 59 59 60 61 63 61
58 58 57 58 58 58 58 58 58 58 58 58 59 59 59 59 59 59 59 59 58 58 58 58 59 59 54 58 68 68 68 68 70 70 66 68 68 65 62 58 61 59 56 59 61 62 62
58 58 58 57 57 57 57 57 57 58 58 58 58 58 58 58 58 58 58 58 58 58 58 58 59 57 52 67 67 66 67 68 69 70 69 70 69 64 61 62 58 55 53 52 60 60 60
59 58 57 57 57 57 57 57 57 57 58 57 57 57 57 57 56 56 56 57 57 57 57 58 56 54 53 67 63 68 69 66 67 68 68 70 65 57 59 53 51 49 48 47 53 57 59
60 59 59 59 58 58 58 57 57 56 57 57 57 57 57 57 57 55 55 56 56 57 58 60 58 51 60 60 66 67 67 68 65 64 62 60 55 52 51 51 44 44 45 45 47 55 56
60 60 59 59 59 59 59 59 57 56 57 57 57 57 57 57 56 54 54 53 51 50 53 53 54 55 58 64 67 66 67 66 64 61 53 53 52 47 49 49 50 48 46 44 48 54 51
59 59 59 59 59 59 59 59 58 57 57 57 57 57 57 57 55 55 56 52 53 56 48 54 54 54 59 62 56 62 68 60 57 51 52 50 46 52 52 50 49 46 43 44 48 51 50
57 58 58 59 59 59 58 58 57 57 57 56 56 57 57 56 55 54 54 55 60 59 47 51 54 54 57 60 55 58 63 58 54 49 48 47 51 51 50 48 46 45 43 43 46 50 51
57 57 57 58 58 58 58 57 57 57 57 56 56 56 54 54 52 54 52 59 59 59 41 44 49 54 56 58 51 64 66 61 53 50 48 47 52 49 48 47 48 42 50 48 46 44 41
56 56 56 57 57 57 56 57 57 56 57 56 55 55 53 56 51 51 56 59 58 54 28 49 48 62 57 54 55 55 62 59 51 48 50 47 47 45 44 47 50 46 50 48 47 45 41
55 55 56 56 56 56 56 56 56 56 56 56 55 55 54 52 52 54 55 57 55 38 27 44 50 48 48 51 53 56 56 59 57 50 49 49 54 52 52 51 51 52 48 44 41 42 35
54 55 55 55 55 55 55 55 55 55 55 55 55 55 54 55 51 52 53 50 36 29 46 42 44 47 46 45 48 50 48 46 44 38 39 45 47 52 53 48 50 48 44 35 34 32 33
54 54 54 55 55 55 55 55 55 54 55 55 55 54 54 53 52 52 51 41 27 38 38 49 47 45 43 47 47 47 45 43 47 45 39 38 37 46 50 49 45 43 44 35 26 28 35
53 54 54 54 54 55 55 55 54 54 54 54 54 51 50 51 50 51 45 32 35 38 44 44 46 42 41 46 46 46 44 43 47 47 42 37 39 49 50 50 50 41 39 44 38 34 31
53 53 53 53 54 53 54 54 54 54 54 54 47 46 47 51 51 48 40 36 39 46 48 48 41 44 38 41 42 43 41 47 46 48 51 43 37 45 47 51 48 46 48 36 36 27 25
52 53 53 53 53 53 53 53 54 54 53 53 45 40 46 51 50 42 33 38 42 47 48 45 43 42 43 40 43 40 42 46 48 46 49 45 43 40 45 43 43 42 39 38 39 36 29
50 51 52 53 53 53 53 52 53 54 53 50 43 34 46 50 37 35 34 41 46 45 48 47 47 45 44 43 41 41 41 44 45 47 44 46 41 35 40 43 45 44 42 42 34 33 34
50 50 50 51 52 52 52 52 52 53 53 45 38 37 45 46 32 32 39 39 44 43 44 44 44 46 47 43 39 42 43 43 44 45 43 44 39 33 35 40 42 40 41 40 38 36 33
49 48 50 51 51 52 52 52 51 52 53 46 36 31 37 39 39 38 36 37 37 45 44 46 45 47 44 42 44 40 40 43 44 43 46 46 39 34 34 37 39 35 37 39 39 32 35
48 47 46 50 51 51 51 52 51 51 52 46 37 33 37 30 34 36 39 39 37 37 45 46 42 43 41 37 39 38 40 41 43 45 43 43 37 30 35 38 39 37 37 37 33 38 32
48 46 46 47 49 51 51 51 51 51 51 42 33 34 34 34 38 36 37 36 37 39 39 38 39 42 41 38 41 36 39 39 40 41 40 39 32 29 25 35 36 32 35 36 34 35 33
49 49 48 48 49 50 51 51 51 50 48 37 40 40 39 35 35 33 34 37 37 41 41 44 42 40 39 41 44 45 46 46 45 41 37 36 30 30 29 34 34 28 32 32 36 37 37
49 49 49 49 49 50 50 50 50 50 48 39 39 39 35 30 34 35 37 39 37 39 34 41 43 40 44 47 46 45 43 43 43 40 41 31 32 32 28 30 21 35 38 39 36 39 39
48 49 49 49 49 49 49 50 50 50 49 41 41 40 36 31 35 35 36 37 39 39 38 38 42 46 47 44 37 35 33 36 36 37 36 36 34 28 27 26 33 38 38 35 33 36 42
48 48 48 48 48 48 49 49 49 49 49 43 42 43 39 35 33 40 36 37 34 35 35 38 43 45 44 37 34 28 26 30 31 31 36 35 36 34 27 23 22 35 40 42 41 29 40
47 47 48 48 48 48 48 48 48 48 48 41 39 43 39 33 37 40 35 35 38 36 34 37 40 40 42 34 30 29 29 36 29 28 28 28 28 27 28 26 32 41 41 42 28 33 37
47 47 47 47 47 47 47 48 48 48 48 42 38 43 40 34 36 41 41 38 38 38 33 36 37 37 34 32 33 32 30 33 33 35 32 31 28 27 30 25 23 41 39 35 40 37 38
46 46 46 47 47 47 47 48 48 47 47 43 36 42 42 36 37 42 43 43 41 40 39 38 38 37 38 36 34 34 30 32 33 29 37 32 36 32 34 34 40 43 43 43 41 40 37
MSLP
1016.81 1017.00 1017.15 1017.18 1017.27 1017.36 1017.77 1017.95 1018.18 1018.48 1018.57 1018.78 1018.95 1019.18 1019.49 1019.41 1019.46 1019.54 1019.63 1019.71 1019.71 1019.68 1019.81 1019.64 1019.23 1018.72 1017.54 1017.39 1016.16 1015.40 1015.24 1015.12 1015.02 1014.99 1015.20 1015.09 1015.19 1015.23 1015.37 1015.62 1015.78 1015.72 1015.66 1015.59 1015.26 1015.16 1015.11
1016.76 1016.94 1017.07 1017.44 1017.53 1017.58 1017.45 1017.92 1018.02 1018.21 1018.21 1018.46 1018.62 1018.94 1018.94 1019.04 1019.14 1019.40 1019.34 1019.51 1019.60 1019.61 1019.66 1019.67 1019.37 1018.91 1018.36 1017.53 1015.44 1015.53 1015.43 1015.23 1015.26 1015.15 1015.51 1015.35 1015.48 1015.58 1015.67 1015.78 1015.91 1016.13 1016.08 1015.63 1015.14 1014.91 1014.93
1016.72 1016.92 1016.74 1017.36 1017.28 1017.54 1017.55 1017.64 1018.23 1018.20 1018.23 1018.33 1018.51 1018.79 1018.81 1018.84 1018.78 1018.96 1019.04 1019.25 1019.31 1019.52 1019.57 1019.58 1019.45 1019.28 1018.82 1016.57 1015.51 1015.68 1015.57 1015.59 1015.52 1015.32 1015.51 1015.46 1015.73 1015.75 1015.98 1016.15 1016.21 1016.12 1015.96 1015.50 1015.32 1015.12 1015.02
1016.45 1016.55 1016.77 1017.04 1016.99 1017.40 1017.38 1017.36 1017.92 1018.03 1017.99 1018.14 1018.50 1018.60 1018.60 1018.60 1018.75 1018.60 1018.70 1018.99 1019.13 1019.26 1019.58 1019.57 1019.40 1019.51 1017.83 1015.40 1015.46 1015.54 1015.52 1015.61 1015.66 1015.59 1015.61 1015.56 1015.67 1015.91 1016.10 1016.56 1016.75 1016.57 1016.37 1016.03 1015.64 1015.57 1015.76
1016.03 1016.25 1016.78 1016.57 1017.11 1016.87 1017.03 1016.96 1017.30 1017.56 1017.61 1017.79 1018.12 1018.45 1018.54 1018.63 1018.59 1018.52 1018.44 1018.76 1018.90 1019.12 1019.41 1019.61 1019.34 1019.47 1016.81 1015.22 1015.29 1015.01 1015.19 1015.30 1015.55 1015.66 1015.73 1015.73 1016.01 1016.64 1016.76 1016.91 1017.30 1017.45 1016.90 1016.62 1016.15 1016.14 1016.10
1015.76 1016.02 1016.31 1016.19 1016.59 1016.48 1016.57 1016.64 1016.70 1016.98 1017.23 1017.43 1017.56 1018.03 1018.28 1018.24 1018.48 1018.48 1018.68 1018.71 1019.02 1019.21 1019.35 1019.17 1019.42 1019.30 1016.42 1015.45 1015.08 1015.05 1015.12 1015.18 1015.53 1015.75 1015.99 1016.37 1016.89 1017.24 1017.46 1017.32 1017.56 1017.73 1017.66 1017.41 1016.85 1016.61 1016.60
1015.44 1015.55 1015.59 1015.90 1016.07 1016.07 1016.36 1016.56 1015.98 1016.87 1016.99 1017.18 1017.12 1017.58 1017.74 1018.05 1018.29 1018.53 1019.03 1019.09 1019.38 1019.43 1018.98 1018.09 1017.98 1017.14 1016.03 1015.45 1015.23 1014.93 1014.95 1015.21 1015.71 1016.07 1016.50 1017.00 1017.18 1017.26 1017.56 1017.73 1017.90 1018.11 1018.17 1017.98 1017.65 1017.09 1017.49
1014.74 1015.08 1015.36 1015.38 1015.77 1015.75 1015.96 1016.29 1016.12 1016.47 1016.47 1016.56 1016.97 1016.95 1017.23 1017.82 1018.26 1018.44 1018.60 1018.42 1018.39 1018.57 1017.90 1017.31 1017.07 1016.83 1016.26 1016.04 1015.81 1015.09 1015.04 1015.53 1015.91 1016.44 1016.99 1017.49 1017.09 1016.77 1017.35 1017.71 1017.99 1018.25 1018.27 1017.96 1017.65 1017.29 1017.54
1014.07 1014.26 1014.68 1015.13 1015.30 1015.60 1015.96 1015.93 1015.95 1016.12 1016.17 1016.68 1016.43 1016.82 1016.84 1017.35 1017.85 1018.56 1018.71 1017.90 1017.92 1017.85 1017.80 1016.52 1015.92 1015.37 1015.28 1015.75 1015.03 1014.53 1014.97 1015.35 1015.95 1016.79 1017.10 1017.21 1017.05 1016.87 1017.16 1017.59 1018.02 1018.25 1018.14 1018.02 1017.87 1017.44 1017.35
1013.28 1013.82 1014.00 1014.36 1014.88 1015.10 1015.52 1015.75 1015.67 1016.13 1016.01 1016.47 1016.61 1016.72 1016.70 1017.10 1018.46 1018.17 1018.11 1017.74 1017.68 1017.84 1017.78 1015.80 1015.35 1014.40 1014.50 1014.90 1014.65 1013.80 1014.21 1014.82 1015.82 1016.48 1017.43 1017.27 1016.91 1017.09 1017.31 1017.32 1017.77 1017.98 1017.61 1017.75 1017.86 1017.90 1017.56
1012.73 1013.02 1013.43 1013.68 1014.08 1014.43 1014.85 1015.38 1015.72 1016.04 1015.91 1016.04 1016.17 1016.58 1016.80 1016.54 1017.42 1017.51 1017.40 1017.24 1017.84 1018.16 1017.43 1014.87 1014.29 1014.25 1014.18 1014.67 1014.17 1014.14 1014.22 1014.70 1015.13 1016.16 1017.14 1016.90 1016.79 1016.91 1016.98 1017.02 1017.28 1017.47 1017.58 1017.72 1017.74 1017.86 1018.06
1012.01 1012.37 1012.78 1013.05 1013.38 1013.82 1014.16 1014.73 1015.08 1015.76 1015.96 1015.86 1016.17 1016.43 1016.48 1017.19 1017.08 1017.11 1017.25 1017.41 1017.91 1018.76 1016.16 1014.44 1014.08 1014.03 1014.54 1014.79 1014.26 1014.23 1014.55 1014.98 1015.50 1016.30 1016.77 1016.84 1016.81 1016.64 1016.33 1016.60 1017.03 1017.26 1017.59 1018.01 1018.39 1018.30 1017.81
1011.38 1011.55 1011.96 1012.47 1012.71 1013.31 1013.84 1014.07 1014.48 1015.12 1015.72 1015.93 1016.09 1016.32 1016.27 1016.33 1016.95 1016.84 1017.16 1017.88 1018.77 1017.41 1014.92 1014.53 1014.15 1014.04 1014.21 1014.53 1014.74 1014.31 1014.71 1015.33 1015.71 1016.48 1016.71 1016.80 1016.58 1016.36 1016.22 1016.64 1017.16 1017.38 1017.79 1018.11 1018.27 1018.23 1017.51
1010.79 1010.87 1011.16 1011.77 1012.15 1012.69 1013.28 1013.75 1014.15 1014.47 1015.18 1015.75 1016.00 1016.13 1015.97 1016.05 1016.35 1016.75 1017.19 1018.23 1017.47 1015.19 1014.78 1014.01 1013.83 1014.35 1014.25 1014.21 1014.60 1014.67 1015.04 1015.45 1015.59 1015.75 1016.19 1016.32 1016.43 1016.08 1016.03 1016.15 1016.79 1017.38 1017.73 1018.06 1017.82 1017.96 1017.67
1009.90 1010.18 1010.41 1010.86 1011.52 1012.10 1012.75 1013.22 1013.78 1014.27 1014.60 1015.39 1015.86 1016.23 1015.95 1016.09 1016.22 1016.67 1017.21 1017.08 1015.28 1014.70 1014.33 1013.82 1013.86 1014.03 1014.20 1014.03 1014.03 1014.70 1014.91 1015.08 1015.02 1015.23 1015.43 1016.03 1016.22 1015.99 1016.10 1016.04 1016.50 1017.64 1017.89 1018.04 1018.00 1018.58 1018.29
1009.04 1009.39 1009.66 1010.14 1010.47 1011.25 1012.05 1012.72 1013.25 1013.91 1014.40 1015.01 1015.79 1016.04 1015.59 1015.62 1016.10 1016.84 1016.90 1015.87 1014.87 1014.25 1013.71 1013.54 1013.28 1013.34 1013.54 1013.93 1014.08 1014.56 1014.86 1014.37 1014.46 1014.58 1014.66 1015.66 1016.32 1016.34 1016.45 1016.41 1017.01 1017.06 1017.54 1018.21 1018.44 1018.33 1017.83
1008.19 1008.48 1008.91 1009.21 1009.61 1010.17 1011.01 1012.02 1012.74 1013.40 1013.99 1014.83 1015.77 1015.89 1015.12 1015.44 1016.17 1016.75 1016.08 1015.22 1014.49 1014.05 1013.85 1013.68 1013.38 1013.33 1013.36 1013.61 1013.86 1014.45 1014.76 1014.69 1014.71 1015.03 1015.18 1015.69 1016.08 1017.07 1016.85 1016.79 1016.86 1017.62 1017.80 1018.30 1018.40 1018.42 1018.15
1007.45 1007.68 1007.79 1008.07 1008.52 1009.30 1010.08 1011.33 1012.15 1012.76 1013.48 1014.55 1015.33 1015.52 1015.13 1015.15 1016.07 1016.27 1015.82 1014.94 1014.44 1014.16 1013.91 1013.79 1013.66 1013.23 1013.15 1013.52 1013.80 1014.38 1014.81 1014.95 1015.02 1014.95 1015.60 1015.92 1016.32 1016.90 1017.09 1017.33 1017.41 1017.35 1017.47 1017.85 1018.16 1018.20 1018.40
1006.37 1006.64 1006.91 1006.88 1007.55 1008.36 1009.36 1010.18 1011.65 1012.10 1012.68 1013.97 1014.77 1015.14 1015.15 1015.01 1014.66 1015.36 1015.41 1015.08 1014.62 1014.40 1014.07 1013.98 1013.81 1013.49 1013.31 1013.42 1014.03 1014.47 1014.92 1015.55 1015.39 1015.50 1015.76 1016.02 1016.57 1017.25 1017.57 1017.99 1017.96 1017.86 1017.78 1017.96 1018.13 1018.29 1017.67
1005.54 1005.88 1006.09 1006.41 1007.18 1007.69 1008.52 1009.40 1010.71 1011.50 1012.03 1013.28 1014.61 1014.93 1015.07 1015.02 1014.49 1014.36 1014.41 1014.19 1014.40 1014.47 1014.27 1013.95 1013.81 1013.65 1013.72 1013.82 1014.02 1014.85 1015.39 1015.87 1015.88 1016.00 1016.16 1016.26 1016.91 1017.29 1017.34 1017.15 1017.60 1018.18 1017.99 1018.15 1018.34 1018.24 1017.73
1004.88 1005.35 1005.63 1005.78 1006.36 1007.16 1007.87 1008.70 1009.77 1010.97 1011.53 1012.60 1013.61 1013.55 1013.48 1014.20 1014.19 1013.66 1013.75 1013.72 1014.16 1014.18 1014.29 1014.23 1014.09 1013.67 1013.91 1014.35 1014.68 1015.15 1015.61 1015.97 1016.45 1016.50 1016.63 1016.69 1017.32 1017.95 1017.99 1017.79 1017.85 1017.95 1018.19 1018.15 1018.27 1017.64 1017.89
1004.20 1004.74 1005.15 1005.63 1005.76 1006.57 1007.25 1008.00 1009.10 1010.04 1011.10 1011.70 1012.63 1013.36 1013.48 1013.36 1013.57 1014.16 1013.67 1013.43 1013.25 1013.70 1013.99 1014.13 1014.06 1013.96 1014.22 1014.48 1014.61 1015.25 1015.66 1016.17 1016.26 1016.87 1017.14 1017.57 1018.19 1018.66 1018.61 1018.22 1018.04 1018.07 1017.87 1017.99 1017.81 1017.25 1017.37
1003.11 1003.64 1004.48 1005.09 1005.73 1006.25 1006.81 1007.51 1008.44 1009.34 1010.83 1010.99 1011.99 1012.29 1012.41 1012.80 1012.95 1013.72 1013.17 1012.85 1013.35 1013.69 1014.18 1013.85 1013.95 1014.24 1014.64 1014.79 1014.92 1015.30 1015.45 1015.76 1016.06 1016.52 1017.37 1018.01 1018.56 1018.91 1018.53 1018.62 1018.30 1017.75 1016.77 1016.92 1016.68 1016.93 1016.76
1002.34 1002.99 1003.63 1004.36 1005.06 1005.73 1006.46 1007.11 1007.99 1008.88 1009.88 1011.66 1011.01 1011.64 1012.40 1012.72 1012.56 1012.48 1012.82 1013.48 1013.75 1013.93 1014.30 1014.16 1014.37 1014.58 1014.92 1014.97 1015.30 1015.57 1015.91 1016.02 1016.25 1016.75 1017.05 1017.99 1018.43 1018.88 1018.88 1018.83 1018.09 1016.13 1016.19 1016.06 1016.33 1016.14 1016.24
1001.60 1002.21 1002.87 1003.65 1004.44 1005.13 1005.99 1006.81 1007.42 1008.41 1009.62 1010.93 1010.97 1010.88 1011.65 1012.07 1012.45 1012.66 1012.98 1013.09 1014.04 1014.28 1014.54 1014.41 1014.66 1014.78 1014.93 1015.34 1015.96 1016.04 1016.42 1016.60 1016.74 1017.04 1017.36 1017.64 1018.06 1018.60 1018.61 1018.33 1016.73 1015.49 1015.40 1015.93 1016.17 1015.24 1015.01
1000.57 1001.34 1002.09 1003.02 1003.85 1004.65 1005.60 1006.29 1007.04 1008.05 1009.12 1010.44 1010.85 1010.57 1011.32 1011.86 1012.31 1012.28 1012.70 1013.11 1013.70 1014.18 1014.96 1014.78 1014.88 1014.93 1015.20 1015.83 1016.30 1016.20 1016.36 1016.42 1016.66 1017.39 1017.72 1017.55 1017.68 1017.69 1018.40 1017.85 1016.52 1014.96 1015.16 1015.52 1015.92 1015.51 1015.07
999.69 1000.60 1001.38 1002.24 1003.11 1004.07 1004.98 1005.80 1006.88 1007.84 1008.75 1010.18 1010.99 1010.48 1011.28 1011.90 1012.14 1012.11 1012.29 1012.63 1013.22 1013.97 1014.32 1014.72 1014.83 1015.31 1015.30 1016.04 1016.42 1016.28 1016.01 1015.88 1015.98 1016.39 1017.07 1017.65 1017.94 1017.55 1017.21 1016.74 1015.45 1014.64 1015.16 1015.70 1016.18 1015.48 1015.54
998.59 999.60 1000.53 1001.52 1002.51 1003.60 1004.55 1005.56 1006.38 1007.47 1008.48 1009.91 1010.70 1010.48 1010.77 1012.05 1012.35 1012.24 1012.42 1012.50 1012.93 1013.26 1013.73 1014.53 1015.27 1015.36 1015.89 1015.86 1015.73 1015.64 1015.45 1015.38 1015.41 1015.38 1015.53 1015.81 1016.41 1016.52 1016.53 1016.37 1015.07 1014.09 1015.25 1015.38 1014.55 1014.98 1015.57
997.68 998.88 999.97 1001.00 1002.00 1003.03 1004.19 1005.04 1006.08 1007.25 1008.34 1009.67 1010.12 1010.29 1010.69 1011.83 1012.67 1012.53 1012.63 1012.81 1013.23 1013.46 1013.51 1013.82 1013.58 1013.77 1014.06 1014.67 1014.98 1014.97 1015.22 1015.08 1014.68 1014.69 1014.91 1015.06 1014.29 1014.60 1014.68 1014.00 1013.46 1013.47 1013.34 1013.89 1014.37 1014.94 1015.84
Wind_Speed
4 5 4 5 3 2 9 11 11 11 10 9 9 8 9 8 8 8 6 5 4 4 7 10 14 19 7 4 7 1 1 4 2 3 4 3 4 2 3 2 2 1 0 4 7 9 6
5 4 4 6 5 4 1 3 2 3 4 8 7 7 8 9 9 10 7 6 5 2 4 7 11 12 3 6 1 3 4 3 3 4 3 4 2 0 4 3 2 1 3 6 5 7 3
8 8 5 8 7 5 5 4 7 6 5 6 4 5 5 7 8 10 8 7 5 2 2 4 8 2 0 13 2 3 3 2 1 2 1 1 1 1 2 2 2 1 4 6 4 3 4
8 9 10 10 7 9 10 8 10 10 8 8 9 8 8 6 8 8 7 7 5 6 2 3 6 1 8 2 1 7 1 1 3 2 1 0 1 3 2 3 4 2 2 1 3 6 4
8 8 9 7 8 10 13 13 11 12 10 8 8 9 9 9 5 5 3 5 8 6 2 3 3 2 10 4 1 2 5 3 4 2 2 3 3 3 3 3 2 5 2 1 3 5 5
12 11 12 9 9 7 10 15 14 14 12 11 10 11 11 10 8 3 4 5 5 3 3 3 1 3 5 3 2 1 2 3 2 4 3 5 4 3 2 3 3 2 2 0 4 1 6
13 13 11 11 10 7 11 8 8 6 7 8 8 9 9 8 5 12 7 4 2 2 1 7 3 4 2 6 2 1 2 4 2 4 3 2 1 4 4 3 3 4 2 3 4 6 6
14 13 12 13 11 10 6 7 7 5 4 5 10 9 8 9 11 11 3 3 1 1 5 12 12 9 8 1 4 2 4 5 3 4 4 3 5 6 5 5 4 2 1 5 6 5 7
15 16 15 15 12 10 10 6 6 6 4 4 6 11 10 7 13 6 3 3 2 3 3 6 9 8 7 11 10 13 8 4 4 4 6 5 3 7 7 4 4 3 5 4 6 3 4
17 17 15 16 15 13 11 8 4 3 7 3 3 5 8 15 6 5 3 4 2 1 4 7 4 6 5 7 7 8 12 6 4 8 6 5 2 5 3 5 6 5 10 8 5 3 4
19 18 18 18 17 12 13 11 7 5 5 4 1 2 14 10 7 5 4 7 3 4 4 2 4 1 5 10 1 3 1 6 16 8 5 3 4 4 5 6 10 5 4 4 3 3 2
20 19 18 18 17 16 16 14 12 9 7 6 4 4 16 3 3 2 5 7 4 3 11 2 5 6 7 4 1 4 4 4 3 5 1 4 2 4 5 4 6 7 3 4 3 1 7
19 21 20 19 17 17 17 15 13 12 8 7 6 5 9 5 4 6 6 4 3 7 3 5 4 5 4 6 3 4 8 6 6 8 9 3 8 3 3 3 1 3 3 3 3 3 5
22 19 20 19 17 18 19 17 15 14 11 7 6 5 5 2 5 7 4 3 7 5 5 2 4 5 5 7 3 3 8 5 3 2 4 6 3 8 4 13 4 5 6 5 5 4 5
23 22 20 21 19 19 19 18 16 14 13 10 6 2 3 4 6 3 8 9 7 7 5 5 3 4 4 3 5 3 8 7 8 9 5 5 3 1 1 3 4 4 5 0 2 1 3
22 23 22 21 22 23 21 19 18 16 14 13 3 3 3 8 8 4 8 11 6 4 1 2 7 4 7 6 6 6 7 4 4 9 2 6 3 1 2 3 4 2 8 3 1 4 6
21 23 29 25 24 24 23 20 20 18 16 13 3 3 1 10 5 4 11 12 5 4 1 1 3 4 4 6 6 6 5 1 1 4 3 5 2 2 2 5 7 3 3 3 1 3 5
23 24 23 28 24 25 23 19 20 21 19 12 2 5 3 7 8 4 9 14 3 4 3 2 1 0 4 5 4 5 6 1 3 5 7 4 4 5 4 1 2 1 5 7 4 7 4
21 21 23 25 23 25 25 24 22 22 22 6 3 1 1 4 11 6 9 16 1 4 5 6 4 3 1 4 4 3 4 2 3 3 5 6 3 3 2 1 0 5 4 2 3 2 12
20 21 27 23 21 22 25 25 24 23 23 8 3 5 3 3 2 15 12 12 13 5 2 3 4 3 2 2 2 4 2 2 2 2 4 5 3 4 7 3 4 4 5 6 6 5 8
20 17 15 21 24 23 21 25 28 25 25 8 6 4 3 10 13 12 12 5 13 10 8 7 4 5 6 5 5 5 2 2 1 1 2 4 6 3 3 2 3 1 5 8 11 14 12
24 18 23 22 19 22 23 24 24 25 26 7 6 5 0 3 14 18 11 14 19 16 9 6 3 6 4 5 4 5 4 3 4 1 2 2 4 2 2 2 1 7 8 10 13 18 13
23 22 24 23 24 22 21 24 25 28 24 3 3 1 3 5 12 11 18 13 9 11 2 6 7 4 3 3 3 3 6 3 3 7 4 4 6 2 5 0 2 12 11 17 8 9 9
23 24 24 24 23 23 22 22 25 28 25 3 3 4 4 3 9 15 13 16 3 11 7 2 5 5 2 4 5 4 4 0 4 2 3 7 5 4 1 3 6 3 5 7 11 11 13
24 24 25 25 25 23 22 22 24 28 29 6 3 5 4 5 8 5 9 17 11 3 4 5 3 3 5 4 2 0 1 1 2 3 5 3 5 4 3 5 9 10 4 6 8 7 7
26 25 26 26 25 23 23 21 22 22 28 9 5 2 3 7 7 5 9 8 9 10 4 2 3 2 5 2 2 6 5 3 5 3 3 5 2 3 5 5 7 3 3 5 5 10 6
27 27 27 25 23 22 21 21 24 24 27 8 3 2 4 3 0 4 6 10 6 5 3 5 4 3 3 4 4 5 5 5 6 7 7 5 1 10 8 7 8 9 7 6 2 5 4
26 26 25 25 24 23 22 23 25 23 26 12 3 3 5 3 2 2 3 3 4 6 5 4 5 1 2 7 6 5 4 7 5 4 7 10 10 6 6 6 11 8 8 8 4 3 4
27 26 25 24 24 22 23 24 25 25 26 15 3 1 4 4 3 2 2 2 1 4 4 5 4 6 7 5 3 3 3 4 6 6 3 6 7 7 11 9 1 13 5 5 4 4 5
Wind_Direction
25 34 29 12 58 143 222 224 227 229 231 234 231 242 255 260 261 265 264 275 291 322 350 352 350 336 356 360 256 64 43 10 24 33 42 40 42 110 106 71 9 95 26 296 285 285 245
268 259 290 291 286 301 353 328 323 319 261 236 230 229 245 253 258 260 260 254 262 295 345 352 353 335 32 292 50 53 12 355 46 52 16 38 102 124 97 100 89 309 283 286 285 287 260
239 244 240 252 267 252 260 284 295 290 280 285 280 272 255 265 266 260 255 252 239 225 277 345 356 45 93 245 32 340 357 27 326 98 42 88 129 88 135 77 1 15 329 337 19 349 26
255 251 227 234 242 252 260 238 254 266 262 276 273 268 274 266 281 271 251 242 203 196 270 330 8 15 251 209 281 299 165 306 262 261 231 350 117 102 59 100 34 44 60 15 352 344 15
236 234 234 233 241 255 245 231 235 242 248 243 258 264 268 275 259 282 261 219 168 166 202 319 58 317 267 305 279 298 186 186 129 91 33 66 65 68 49 82 9 13 176 307 309 51 11
241 237 238 231 241 264 266 227 223 230 230 240 238 249 254 252 252 301 131 126 133 143 173 110 29 321 271 329 316 103 156 144 123 122 68 43 55 69 81 133 257 171 160 181 263 347 341
238 249 245 238 249 256 256 211 170 215 221 247 234 238 235 240 194 129 125 108 115 216 221 210 191 273 258 312 293 83 152 116 92 61 150 15 90 244 238 186 130 117 131 236 267 272 312
234 240 246 245 243 237 238 215 190 213 227 292 239 221 219 220 158 163 138 177 280 301 296 233 246 258 264 52 320 325 137 172 161 182 129 88 231 240 159 163 203 149 188 250 274 263 209
230 221 227 232 235 231 214 206 210 221 190 291 263 211 196 188 160 141 218 181 188 202 275 263 210 210 208 185 219 243 163 136 151 179 197 214 229 116 154 172 202 206 216 215 245 313 231
234 233 226 221 222 217 218 191 170 246 183 186 296 222 141 136 142 153 199 179 95 266 300 263 234 256 138 136 257 232 197 147 168 217 175 244 252 172 186 219 175 251 218 230 243 217 262
241 233 226 220 215 209 199 188 187 223 234 191 229 241 155 163 134 163 200 141 117 55 270 185 162 114 154 173 121 32 153 174 214 170 159 241 176 160 191 226 177 231 176 175 165 199 264
237 229 228 224 220 208 198 199 180 202 235 207 199 198 150 141 111 210 127 114 74 95 244 180 138 156 144 216 353 126 119 70 144 144 175 231 247 204 180 144 172 145 105 66 73 180 254
247 230 224 222 220 217 210 197 188 182 205 236 209 184 174 147 198 149 135 97 143 211 16 190 182 159 164 161 203 148 153 153 156 164 209 194 226 221 156 160 122 112 107 301 257 200 269
248 232 221 221 219 212 209 199 188 178 180 232 225 194 220 194 136 144 109 128 200 197 205 311 131 123 177 151 201 132 141 162 200 138 132 184 207 177 177 213 185 177 183 191 246 243 288
244 234 220 212 216 214 209 202 195 184 177 192 200 204 215 186 138 129 161 190 213 184 191 190 125 146 201 191 145 154 175 189 199 184 168 145 261 167 150 138 157 154 192 143 249 90 278
249 240 225 217 207 205 210 205 194 191 177 177 156 199 227 151 141 145 192 210 223 202 226 208 194 168 181 185 149 177 182 190 207 189 167 186 143 358 120 108 70 181 141 143 92 253 264
261 243 240 220 207 201 191 198 191 181 171 163 170 196 198 139 151 184 203 219 198 197 137 6 205 154 183 168 179 184 185 99 359 141 94 146 147 166 142 209 179 146 185 77 176 202 268
241 260 243 215 200 194 184 189 201 179 166 154 189 178 173 167 178 179 198 222 202 188 173 254 323 129 157 152 152 187 205 86 334 153 161 184 133 180 185 73 340 280 204 179 204 238 232
243 253 244 205 195 191 186 179 201 186 166 131 195 139 299 179 180 178 195 218 202 202 178 177 220 236 200 159 123 157 143 66 19 138 154 186 176 165 210 128 25 232 190 140 97 61 251
234 250 215 208 196 191 190 181 184 191 177 149 135 184 147 190 217 206 192 198 213 198 265 180 201 150 122 180 15 145 126 32 24 112 96 109 127 188 248 184 132 204 196 194 202 241 271
225 249 245 222 197 188 187 186 182 192 188 158 173 207 203 191 198 217 194 179 196 201 204 185 205 192 165 189 147 161 154 109 51 127 78 155 193 149 226 133 167 225 224 194 210 237 242
227 213 234 221 214 201 193 188 189 184 194 186 157 174 132 175 191 201 200 210 206 200 169 189 179 183 176 172 178 170 124 192 210 85 98 18 140 129 286 228 220 266 240 232 229 249 263
229 222 221 222 212 209 197 191 191 181 193 103 148 86 136 160 172 184 215 211 184 179 202 156 167 124 172 214 173 196 200 194 177 159 148 138 143 120 270 20 79 271 230 221 236 237 233
230 223 220 215 215 213 206 199 192 186 182 147 219 111 116 172 172 196 207 207 157 187 153 159 151 130 174 105 96 67 51 27 189 170 151 146 121 147 218 152 244 265 195 205 222 244 228
226 225 218 216 212 209 209 207 201 197 184 151 262 140 170 175 188 152 187 192 179 87 172 176 137 150 150 80 87 79 18 279 195 186 160 163 138 152 203 213 304 283 200 174 197 275 241
222 221 218 220 206 205 206 204 193 187 187 170 255 118 129 181 202 160 162 159 179 193 161 178 89 121 84 92 114 197 210 199 187 152 69 96 56 184 163 217 248 248 180 144 115 275 197
211 213 210 209 205 204 201 198 190 181 178 134 235 149 104 123 68 156 167 176 133 137 170 141 154 148 121 141 183 192 215 187 194 189 168 148 122 208 208 231 265 253 152 131 205 251 174
205 206 204 202 199 200 196 194 185 184 178 150 215 163 134 107 91 84 34 120 125 164 144 163 128 217 122 199 200 184 206 201 195 182 175 176 173 189 199 228 262 145 121 202 205 151 184
199 198 197 196 196 195 193 190 188 176 174 150 137 135 107 90 105 80 136 148 77 358 165 184 174 167 170 171 191 158 180 181 183 223 173 205 201 185 195 205 181 191 196 198 171 160 201